Year,Month,Day,Hour,Minute,Value (Times are PST for temperature in C)
2010,08,19,00,00,15.80
2010,08,19,00,01,15.80
2010,08,19,00,02,15.80
2010,08,19,00,03,15.80
2010,08,19,00,04,15.80
2010,08,19,00,05,15.80
2010,08,19,00,06,15.80
2010,08,19,00,07,15.80
2010,08,19,00,08,15.80
2010,08,19,00,09,15.80
2010,08,19,00,10,15.80
2010,08,19,00,11,15.80
2010,08,19,00,12,15.80
2010,08,19,00,13,15.80
2010,08,19,00,14,15.70
2010,08,19,00,15,15.70
2010,08,19,00,16,15.70
2010,08,19,00,17,15.70
2010,08,19,00,18,15.70
2010,08,19,00,19,15.70
2010,08,19,00,20,15.60
2010,08,19,00,21,15.60
2010,08,19,00,22,15.60
2010,08,19,00,23,15.60
2010,08,19,00,24,15.60
2010,08,19,00,25,15.70
2010,08,19,00,26,15.70
2010,08,19,00,27,15.70
2010,08,19,00,28,15.70
2010,08,19,00,29,15.70
2010,08,19,00,30,15.70
2010,08,19,00,31,15.70
2010,08,19,00,32,15.70
2010,08,19,00,33,15.70
2010,08,19,00,34,15.70
2010,08,19,00,35,15.70
2010,08,19,00,36,15.70
2010,08,19,00,37,15.70
2010,08,19,00,38,15.70
2010,08,19,00,39,15.70
2010,08,19,00,40,15.60
2010,08,19,00,41,15.60
2010,08,19,00,42,15.60
2010,08,19,00,43,15.60
2010,08,19,00,44,15.60
2010,08,19,00,45,15.60
2010,08,19,00,46,15.60
2010,08,19,00,47,15.60
2010,08,19,00,48,15.60
2010,08,19,00,49,15.60
2010,08,19,00,50,15.60
2010,08,19,00,51,15.60
2010,08,19,00,52,15.60
2010,08,19,00,53,15.60
2010,08,19,00,54,15.60
2010,08,19,00,55,15.60
2010,08,19,00,56,15.70
2010,08,19,00,57,15.70
2010,08,19,00,58,15.70
2010,08,19,00,59,15.70
2010,08,19,01,00,15.70
2010,08,19,01,01,15.70
2010,08,19,01,02,15.80
2010,08,19,01,03,15.80
2010,08,19,01,04,15.80
2010,08,19,01,05,15.80
2010,08,19,01,06,15.80
2010,08,19,01,07,15.90
2010,08,19,01,08,15.90
2010,08,19,01,09,15.90
2010,08,19,01,10,15.90
2010,08,19,01,11,15.90
2010,08,19,01,12,15.90
2010,08,19,01,13,15.90
2010,08,19,01,14,16.00
2010,08,19,01,15,16.00
2010,08,19,01,16,16.00
2010,08,19,01,17,16.00
2010,08,19,01,18,16.00
2010,08,19,01,19,16.00
2010,08,19,01,20,16.00
2010,08,19,01,21,16.00
2010,08,19,01,22,16.00
2010,08,19,01,23,16.00
2010,08,19,01,24,16.00
2010,08,19,01,25,16.00
2010,08,19,01,26,16.00
2010,08,19,01,27,16.00
2010,08,19,01,28,16.10
2010,08,19,01,29,16.10
2010,08,19,01,30,16.10
2010,08,19,01,31,16.10
2010,08,19,01,32,16.10
2010,08,19,01,33,16.10
2010,08,19,01,34,16.10
2010,08,19,01,35,16.10
2010,08,19,01,36,16.10
2010,08,19,01,37,16.10
2010,08,19,01,38,16.10
2010,08,19,01,39,16.10
2010,08,19,01,40,16.20
2010,08,19,01,41,16.20
2010,08,19,01,42,16.20
2010,08,19,01,43,16.20
2010,08,19,01,44,16.20
2010,08,19,01,45,16.20
2010,08,19,01,46,16.20
2010,08,19,01,47,16.20
2010,08,19,01,48,16.20
2010,08,19,01,49,16.30
2010,08,19,01,50,16.30
2010,08,19,01,51,16.30
2010,08,19,01,52,16.30
2010,08,19,01,53,16.30
2010,08,19,01,54,16.30
2010,08,19,01,55,16.30
2010,08,19,01,56,16.30
2010,08,19,01,57,16.30
2010,08,19,01,58,16.30
2010,08,19,01,59,16.30
2010,08,19,02,00,16.30
2010,08,19,02,01,16.30
2010,08,19,02,02,16.30
2010,08,19,02,03,16.30
2010,08,19,02,04,16.30
2010,08,19,02,05,16.30
2010,08,19,02,06,16.30
2010,08,19,02,07,16.30
2010,08,19,02,08,16.30
2010,08,19,02,09,16.30
2010,08,19,02,10,16.30
2010,08,19,02,11,16.30
2010,08,19,02,12,16.30
2010,08,19,02,13,16.30
2010,08,19,02,14,16.30
2010,08,19,02,15,16.30
2010,08,19,02,16,16.30
2010,08,19,02,17,16.40
2010,08,19,02,18,16.40
2010,08,19,02,19,16.40
2010,08,19,02,20,16.40
2010,08,19,02,21,16.40
2010,08,19,02,22,16.40
2010,08,19,02,23,16.40
2010,08,19,02,24,16.50
2010,08,19,02,25,16.50
2010,08,19,02,26,16.50
2010,08,19,02,27,16.50
2010,08,19,02,28,16.60
2010,08,19,02,29,16.60
2010,08,19,02,30,16.60
2010,08,19,02,31,16.60
2010,08,19,02,32,16.60
2010,08,19,02,33,16.60
2010,08,19,02,34,16.60
2010,08,19,02,35,16.60
2010,08,19,02,36,16.60
2010,08,19,02,37,16.60
2010,08,19,02,38,16.60
2010,08,19,02,39,16.60
2010,08,19,02,40,16.60
2010,08,19,02,41,16.60
2010,08,19,02,42,16.60
2010,08,19,02,43,16.60
2010,08,19,02,44,16.60
2010,08,19,02,45,16.60
2010,08,19,02,46,16.60
2010,08,19,02,47,16.60
2010,08,19,02,48,16.50
2010,08,19,02,49,16.50
2010,08,19,02,50,16.50
2010,08,19,02,51,16.50
2010,08,19,02,52,16.50
2010,08,19,02,53,16.50
2010,08,19,02,54,16.50
2010,08,19,02,55,16.40
2010,08,19,02,56,16.40
2010,08,19,02,57,16.40
2010,08,19,02,58,16.40
2010,08,19,02,59,16.40
2010,08,19,03,00,16.40
2010,08,19,03,01,16.40
2010,08,19,03,02,16.40
2010,08,19,03,03,16.40
2010,08,19,03,04,16.40
2010,08,19,03,05,16.40
2010,08,19,03,06,16.40
2010,08,19,03,07,16.40
2010,08,19,03,08,16.40
2010,08,19,03,09,16.40
2010,08,19,03,10,16.40
2010,08,19,03,11,16.40
2010,08,19,03,12,16.40
2010,08,19,03,13,16.40
2010,08,19,03,14,16.40
2010,08,19,03,15,16.40
2010,08,19,03,16,16.40
2010,08,19,03,17,16.40
2010,08,19,03,18,16.40
2010,08,19,03,19,16.40
2010,08,19,03,20,16.40
2010,08,19,03,21,16.40
2010,08,19,03,22,16.30
2010,08,19,03,23,16.30
2010,08,19,03,24,16.30
2010,08,19,03,25,16.30
2010,08,19,03,26,16.30
2010,08,19,03,27,16.30
2010,08,19,03,28,16.30
2010,08,19,03,29,16.30
2010,08,19,03,30,16.30
2010,08,19,03,31,16.30
2010,08,19,03,32,16.30
2010,08,19,03,33,16.30
2010,08,19,03,34,16.30
2010,08,19,03,35,16.20
2010,08,19,03,36,16.20
2010,08,19,03,37,16.20
2010,08,19,03,38,16.20
2010,08,19,03,39,16.20
2010,08,19,03,40,16.20
2010,08,19,03,41,16.20
2010,08,19,03,42,16.20
2010,08,19,03,43,16.20
2010,08,19,03,44,16.20
2010,08,19,03,45,16.20
2010,08,19,03,46,16.20
2010,08,19,03,47,16.20
2010,08,19,03,48,16.20
2010,08,19,03,49,16.20
2010,08,19,03,50,16.20
2010,08,19,03,51,16.20
2010,08,19,03,52,16.10
2010,08,19,03,53,16.10
2010,08,19,03,54,16.10
2010,08,19,03,55,16.10
2010,08,19,03,56,16.10
2010,08,19,03,57,16.10
2010,08,19,03,58,16.10
2010,08,19,03,59,16.10
2010,08,19,04,00,16.10
2010,08,19,04,01,16.10
2010,08,19,04,02,16.10
2010,08,19,04,03,16.10
2010,08,19,04,04,16.10
2010,08,19,04,05,16.00
2010,08,19,04,06,16.00
2010,08,19,04,07,16.00
2010,08,19,04,08,16.00
2010,08,19,04,09,16.00
2010,08,19,04,10,16.00
2010,08,19,04,11,15.90
2010,08,19,04,12,15.90
2010,08,19,04,13,15.90
2010,08,19,04,14,15.90
2010,08,19,04,15,15.90
2010,08,19,04,16,15.90
2010,08,19,04,17,15.90
2010,08,19,04,18,15.90
2010,08,19,04,19,15.90
2010,08,19,04,20,15.90
2010,08,19,04,21,15.90
2010,08,19,04,22,15.90
2010,08,19,04,23,15.80
2010,08,19,04,24,15.80
2010,08,19,04,25,15.80
2010,08,19,04,26,15.80
2010,08,19,04,27,15.80
2010,08,19,04,28,15.80
2010,08,19,04,29,15.80
2010,08,19,04,30,15.80
2010,08,19,04,31,15.80
2010,08,19,04,32,15.80
2010,08,19,04,33,15.80
2010,08,19,04,34,15.80
2010,08,19,04,35,15.80
2010,08,19,04,36,15.80
2010,08,19,04,37,15.80
2010,08,19,04,38,15.80
2010,08,19,04,39,15.80
2010,08,19,04,40,15.80
2010,08,19,04,41,15.70
2010,08,19,04,42,15.70
2010,08,19,04,43,15.70
2010,08,19,04,44,15.70
2010,08,19,04,45,15.70
2010,08,19,04,46,15.70
2010,08,19,04,47,15.70
2010,08,19,04,48,15.70
2010,08,19,04,49,15.70
2010,08,19,04,50,15.70
2010,08,19,04,51,15.70
2010,08,19,04,52,15.70
2010,08,19,04,53,15.70
2010,08,19,04,54,15.70
2010,08,19,04,55,15.70
2010,08,19,04,56,15.70
2010,08,19,04,57,15.70
2010,08,19,04,58,15.70
2010,08,19,04,59,15.70
2010,08,19,05,00,15.70
2010,08,19,05,01,15.60
2010,08,19,05,02,15.60
2010,08,19,05,03,15.60
2010,08,19,05,04,15.60
2010,08,19,05,05,15.60
2010,08,19,05,06,15.60
2010,08,19,05,07,15.60
2010,08,19,05,08,15.60
2010,08,19,05,09,15.60
2010,08,19,05,10,15.60
2010,08,19,05,11,15.60
2010,08,19,05,12,15.60
2010,08,19,05,13,15.60
2010,08,19,05,14,15.60
2010,08,19,05,15,15.60
2010,08,19,05,16,15.60
2010,08,19,05,17,15.60
2010,08,19,05,18,15.60
2010,08,19,05,19,15.60
2010,08,19,05,20,15.60
2010,08,19,05,21,15.50
2010,08,19,05,22,15.50
2010,08,19,05,23,15.50
2010,08,19,05,24,15.50
2010,08,19,05,25,15.50
2010,08,19,05,26,15.50
2010,08,19,05,27,15.50
2010,08,19,05,28,15.50
2010,08,19,05,29,15.50
2010,08,19,05,30,15.50
2010,08,19,05,31,15.50
2010,08,19,05,32,15.50
2010,08,19,10,37,15.70
2010,08,19,10,38,15.80
2010,08,19,10,39,15.90
2010,08,19,10,40,15.90
2010,08,19,10,41,15.90
2010,08,19,10,42,15.80
2010,08,19,10,43,15.70
2010,08,19,10,44,15.70
2010,08,19,10,45,15.60
2010,08,19,10,46,15.60
2010,08,19,10,47,15.60
2010,08,19,10,48,15.60
2010,08,19,10,49,15.50
2010,08,19,10,50,15.50
2010,08,19,10,51,15.50
2010,08,19,10,52,15.50
2010,08,19,10,53,15.50
2010,08,19,10,54,15.40
2010,08,19,10,55,15.40
2010,08,19,10,56,15.30
2010,08,19,10,57,15.30
2010,08,19,10,58,15.40
2010,08,19,10,59,15.40
2010,08,19,11,00,15.40
2010,08,19,11,01,15.40
2010,08,19,11,02,15.40
2010,08,19,11,03,15.40
2010,08,19,11,04,15.40
2010,08,19,11,05,15.40
2010,08,19,11,06,15.40
2010,08,19,11,07,15.40
2010,08,19,11,08,15.40
2010,08,19,11,09,15.40
2010,08,19,11,10,15.40
2010,08,19,11,11,15.30
2010,08,19,11,12,15.30
2010,08,19,11,13,15.30
2010,08,19,11,14,15.30
2010,08,19,11,15,15.30
2010,08,19,11,16,15.40
2010,08,19,11,17,15.50
2010,08,19,11,18,15.70
2010,08,19,11,19,15.70
2010,08,19,11,20,15.70
2010,08,19,11,21,15.70
2010,08,19,11,22,15.70
2010,08,19,11,23,15.80
2010,08,19,11,24,15.90
2010,08,19,11,25,15.90
2010,08,19,11,26,15.90
2010,08,19,11,27,15.90
2010,08,19,11,28,15.80
2010,08,19,11,29,15.80
2010,08,19,11,30,15.80
2010,08,19,11,31,15.80
2010,08,19,11,32,15.90
2010,08,19,11,33,15.90
2010,08,19,11,34,15.90
2010,08,19,11,35,15.90
2010,08,19,11,36,15.90
2010,08,19,11,37,15.90
2010,08,19,11,38,15.90
2010,08,19,11,39,15.90
2010,08,19,11,40,15.90
2010,08,19,11,41,15.90
2010,08,19,11,42,15.90
2010,08,19,11,43,15.90
2010,08,19,11,44,15.90
2010,08,19,11,45,16.00
2010,08,19,11,46,15.90
2010,08,19,11,47,16.00
2010,08,19,11,48,16.00
2010,08,19,11,49,16.00
2010,08,19,11,50,16.00
2010,08,19,11,51,16.10
2010,08,19,11,52,16.10
2010,08,19,11,53,16.20
2010,08,19,11,54,16.20
2010,08,19,11,55,16.30
2010,08,19,11,56,16.30
2010,08,19,11,57,16.20
2010,08,19,11,58,16.20
2010,08,19,11,59,16.20
2010,08,19,12,00,16.20
2010,08,19,12,01,16.30
2010,08,19,12,02,16.30
2010,08,19,12,03,16.30
2010,08,19,12,04,16.30
2010,08,19,12,05,16.20
2010,08,19,12,06,16.10
2010,08,19,12,07,16.10
2010,08,19,12,08,16.20
2010,08,19,12,09,16.20
2010,08,19,12,10,16.30
2010,08,19,12,11,16.20
2010,08,19,12,12,16.30
2010,08,19,12,13,16.40
2010,08,19,12,14,16.40
2010,08,19,12,15,16.50
2010,08,19,12,16,16.50
2010,08,19,12,17,16.40
2010,08,19,12,18,16.50
2010,08,19,12,19,16.50
2010,08,19,12,20,16.50
2010,08,19,12,21,16.40
2010,08,19,12,22,16.40
2010,08,19,12,23,16.40
2010,08,19,12,24,16.40
2010,08,19,12,25,16.40
2010,08,19,12,26,16.50
2010,08,19,12,27,16.50
2010,08,19,12,28,16.40
2010,08,19,12,29,16.30
2010,08,19,12,30,16.30
2010,08,19,12,31,16.20
2010,08,19,12,32,16.20
2010,08,19,12,33,16.20
2010,08,19,12,34,16.20
2010,08,19,12,35,16.20
2010,08,19,12,36,16.20
2010,08,19,12,37,16.20
2010,08,19,12,38,16.20
2010,08,19,12,39,16.30
2010,08,19,12,40,16.30
2010,08,19,12,41,16.40
2010,08,19,12,42,16.40
2010,08,19,12,43,16.40
2010,08,19,12,44,16.60
2010,08,19,12,45,16.70
2010,08,19,12,46,16.70
2010,08,19,12,47,16.70
2010,08,19,12,48,16.70
2010,08,19,12,49,16.60
2010,08,19,12,50,16.50
2010,08,19,12,51,16.50
2010,08,19,12,52,16.50
2010,08,19,12,53,16.50
2010,08,19,12,54,16.50
2010,08,19,12,55,16.50
2010,08,19,12,56,16.50
2010,08,19,12,57,16.60
2010,08,19,12,58,16.60
2010,08,19,12,59,16.60
2010,08,19,13,00,16.60
2010,08,19,13,01,16.60
2010,08,19,13,02,16.60
2010,08,19,13,03,16.50
2010,08,19,13,04,16.50
2010,08,19,13,05,16.40
2010,08,19,13,06,16.40
2010,08,19,13,07,16.30
2010,08,19,13,08,16.40
2010,08,19,13,09,16.30
2010,08,19,13,10,16.30
2010,08,19,13,11,16.20
2010,08,19,13,12,16.20
2010,08,19,13,13,16.20
2010,08,19,13,14,16.20
2010,08,19,13,15,16.20
2010,08,19,13,16,16.30
2010,08,19,13,17,16.30
2010,08,19,13,18,16.20
2010,08,19,13,19,16.30
2010,08,19,13,20,16.20
2010,08,19,13,21,16.20
2010,08,19,13,22,16.20
2010,08,19,13,23,16.10
2010,08,19,13,24,16.10
2010,08,19,13,25,16.00
2010,08,19,13,26,16.10
2010,08,19,13,27,16.10
2010,08,19,13,28,16.10
2010,08,19,13,29,16.10
2010,08,19,13,30,16.10
2010,08,19,13,31,16.20
2010,08,19,13,32,16.30
2010,08,19,13,33,16.40
2010,08,19,13,34,16.50
2010,08,19,13,35,16.60
2010,08,19,13,36,16.50
2010,08,19,13,37,16.60
2010,08,19,13,38,16.60
2010,08,19,13,39,16.60
2010,08,19,13,40,16.60
2010,08,19,13,41,16.60
2010,08,19,13,42,16.50
2010,08,19,13,43,16.40
2010,08,19,13,44,16.40
2010,08,19,13,45,16.40
2010,08,19,13,46,16.40
2010,08,19,13,47,16.40
2010,08,19,13,48,16.30
2010,08,19,13,49,16.20
2010,08,19,13,50,16.20
2010,08,19,13,51,16.20
2010,08,19,13,52,16.20
2010,08,19,13,53,16.20
2010,08,19,13,54,16.20
2010,08,19,13,55,16.20
2010,08,19,13,56,16.30
2010,08,19,13,57,16.30
2010,08,19,13,58,16.20
2010,08,19,13,59,16.20
2010,08,19,14,00,16.20
2010,08,19,14,01,16.20
2010,08,19,14,02,16.20
2010,08,19,14,03,16.30
2010,08,19,14,04,16.30
2010,08,19,14,05,16.30
2010,08,19,14,06,16.30
2010,08,19,14,07,16.30
2010,08,19,14,08,16.30
2010,08,19,14,09,16.30
2010,08,19,14,10,16.20
2010,08,19,14,11,16.20
2010,08,19,14,12,16.20
2010,08,19,14,13,16.10
2010,08,19,14,14,16.10
2010,08,19,14,15,16.00
2010,08,19,14,16,16.10
2010,08,19,14,17,16.10
2010,08,19,14,18,16.10
2010,08,19,14,19,16.20
2010,08,19,14,20,16.20
2010,08,19,14,21,16.20
2010,08,19,14,22,16.20
2010,08,19,14,23,16.20
2010,08,19,14,24,16.30
2010,08,19,14,25,16.40
2010,08,19,14,26,16.40
2010,08,19,14,27,16.40
2010,08,19,14,28,16.40
2010,08,19,14,29,16.50
2010,08,19,14,30,16.60
2010,08,19,14,31,16.70
2010,08,19,14,32,16.70
2010,08,19,14,33,16.90
2010,08,19,14,34,16.90
2010,08,19,14,35,16.90
2010,08,19,14,36,16.90
2010,08,19,14,37,16.80
2010,08,19,14,38,16.80
2010,08,19,14,39,16.80
2010,08,19,14,40,16.70
2010,08,19,14,41,16.60
2010,08,19,14,42,16.60
2010,08,19,14,43,16.60
2010,08,19,14,44,16.50
2010,08,19,14,45,16.60
2010,08,19,14,46,16.60
2010,08,19,14,47,16.70
2010,08,19,14,48,16.60
2010,08,19,14,49,16.60
2010,08,19,14,50,16.60
2010,08,19,14,51,16.70
2010,08,19,14,52,16.60
2010,08,19,14,53,16.50
2010,08,19,14,54,16.40
2010,08,19,14,55,16.40
2010,08,19,14,56,16.40
2010,08,19,14,57,16.40
2010,08,19,14,58,16.50
2010,08,19,14,59,16.60
2010,08,19,15,00,16.60
2010,08,19,15,01,16.60
2010,08,19,15,02,16.50
2010,08,19,15,03,16.50
2010,08,19,15,04,16.50
2010,08,19,15,05,16.60
2010,08,19,15,06,16.60
2010,08,19,15,07,16.70
2010,08,19,15,08,16.70
2010,08,19,15,09,16.70
2010,08,19,15,10,16.60
2010,08,19,15,11,16.60
2010,08,19,15,12,16.60
2010,08,19,15,13,16.50
2010,08,19,15,14,16.50
2010,08,19,15,15,16.50
2010,08,19,15,16,16.60
2010,08,19,15,17,16.60
2010,08,19,15,18,16.50
2010,08,19,15,19,16.40
2010,08,19,15,20,16.40
2010,08,19,15,21,16.50
2010,08,19,15,22,16.50
2010,08,19,15,23,16.60
2010,08,19,15,24,16.70
2010,08,19,15,25,16.70
2010,08,19,15,26,16.70
2010,08,19,15,27,16.70
2010,08,19,15,28,16.80
2010,08,19,15,29,16.80
2010,08,19,15,30,16.80
2010,08,19,15,31,16.70
2010,08,19,15,32,16.70
2010,08,19,15,33,16.70
2010,08,19,15,34,16.70
2010,08,19,15,35,16.60
2010,08,19,15,36,16.50
2010,08,19,15,37,16.50
2010,08,19,15,38,16.60
2010,08,19,15,39,16.60
2010,08,19,15,40,16.60
2010,08,19,15,41,16.60
2010,08,19,15,42,16.60
2010,08,19,15,43,16.60
2010,08,19,15,44,16.50
2010,08,19,15,45,16.50
2010,08,19,15,46,16.50
2010,08,19,15,47,16.60
2010,08,19,15,48,16.50
2010,08,19,15,49,16.60
2010,08,19,15,50,16.60
2010,08,19,15,51,16.60
2010,08,19,15,52,16.70
2010,08,19,15,53,16.70
2010,08,19,15,54,16.70
2010,08,19,15,55,16.60
2010,08,19,15,56,16.60
2010,08,19,15,57,16.70
2010,08,19,15,58,16.80
2010,08,19,15,59,16.70
2010,08,19,16,00,16.70
2010,08,19,16,01,16.70
2010,08,19,16,02,16.70
2010,08,19,16,03,16.80
2010,08,19,16,04,16.80
2010,08,19,16,05,16.90
2010,08,19,16,06,16.90
2010,08,19,16,07,16.90
2010,08,19,16,08,16.90
2010,08,19,16,09,17.00
2010,08,19,16,10,17.00
2010,08,19,16,11,17.10
2010,08,19,16,12,17.10
2010,08,19,16,13,17.10
2010,08,19,16,14,17.10
2010,08,19,16,15,17.10
2010,08,19,16,16,17.10
2010,08,19,16,17,17.10
2010,08,19,16,18,17.10
2010,08,19,16,19,17.10
2010,08,19,16,20,17.10
2010,08,19,16,21,17.10
2010,08,19,16,22,17.20
2010,08,19,16,23,17.20
2010,08,19,16,24,17.20
2010,08,19,16,25,17.20
2010,08,19,16,26,17.20
2010,08,19,16,27,17.20
2010,08,19,16,28,17.20
2010,08,19,16,29,17.20
2010,08,19,16,30,17.20
2010,08,19,16,31,17.10
2010,08,19,16,32,17.10
2010,08,19,16,33,17.10
2010,08,19,16,34,17.10
2010,08,19,16,35,17.20
2010,08,19,16,36,17.20
2010,08,19,16,37,17.20
2010,08,19,16,38,17.20
2010,08,19,16,39,17.20
2010,08,19,16,40,17.10
2010,08,19,16,41,17.00
2010,08,19,16,42,17.00
2010,08,19,16,43,17.00
2010,08,19,16,44,16.90
2010,08,19,16,45,17.00
2010,08,19,16,46,17.00
2010,08,19,16,47,17.00
2010,08,19,16,48,17.10
2010,08,19,16,49,17.10
2010,08,19,16,50,17.10
2010,08,19,16,51,17.20
2010,08,19,16,52,17.20
2010,08,19,16,53,17.10
2010,08,19,16,54,17.10
2010,08,19,16,55,17.10
2010,08,19,16,56,17.00
2010,08,19,16,57,17.00
2010,08,19,16,58,17.00
2010,08,19,16,59,17.00
2010,08,19,17,00,17.00
2010,08,19,17,01,17.00
2010,08,19,17,02,17.00
2010,08,19,17,03,16.90
2010,08,19,17,04,16.90
2010,08,19,17,05,16.90
2010,08,19,17,06,16.90
2010,08,19,17,07,16.90
2010,08,19,17,08,16.90
2010,08,19,17,09,16.90
2010,08,19,17,10,16.80
2010,08,19,17,11,16.80
2010,08,19,17,12,16.80
2010,08,19,17,13,16.90
2010,08,19,17,14,17.00
2010,08,19,17,15,17.00
2010,08,19,17,16,17.00
2010,08,19,17,17,17.00
2010,08,19,17,18,17.00
2010,08,19,17,19,17.10
2010,08,19,17,20,17.10
2010,08,19,17,21,17.10
2010,08,19,17,22,17.10
2010,08,19,17,23,17.10
2010,08,19,17,24,17.20
2010,08,19,17,25,17.10
2010,08,19,17,26,17.10
2010,08,19,17,27,17.10
2010,08,19,17,28,17.00
2010,08,19,17,29,17.00
2010,08,19,17,30,17.10
2010,08,19,17,31,17.10
2010,08,19,17,32,17.20
2010,08,19,17,33,17.10
2010,08,19,17,34,17.10
2010,08,19,17,35,17.10
2010,08,19,17,36,17.20
2010,08,19,17,37,17.20
2010,08,19,17,38,17.20
2010,08,19,17,39,17.20
2010,08,19,17,40,17.10
2010,08,19,17,41,17.10
2010,08,19,17,42,17.10
2010,08,19,17,43,17.10
2010,08,19,17,44,17.10
2010,08,19,17,45,17.10
2010,08,19,17,46,17.10
2010,08,19,17,47,17.10
2010,08,19,17,48,17.10
2010,08,19,17,49,17.00
2010,08,19,17,50,16.90
2010,08,19,17,51,17.00
2010,08,19,17,52,17.00
2010,08,19,17,53,17.00
2010,08,19,17,54,17.00
2010,08,19,17,55,17.10
2010,08,19,17,56,17.10
2010,08,19,17,57,17.10
2010,08,19,17,58,17.20
2010,08,19,17,59,17.30
2010,08,19,18,00,17.30
2010,08,19,18,01,17.40
2010,08,19,18,02,17.40
2010,08,19,18,03,17.40
2010,08,19,18,04,17.40
2010,08,19,18,05,17.50
2010,08,19,18,06,17.60
2010,08,19,18,07,17.60
2010,08,19,18,08,17.70
2010,08,19,18,09,17.70
2010,08,19,18,10,17.70
2010,08,19,18,11,17.70
2010,08,19,18,12,17.70
2010,08,19,18,13,17.80
2010,08,19,18,14,17.80
2010,08,19,18,15,17.90
2010,08,19,18,16,17.90
2010,08,19,18,17,17.90
2010,08,19,18,18,17.90
2010,08,19,18,19,17.90
2010,08,19,18,20,17.90
2010,08,19,18,21,17.90
2010,08,19,18,22,17.90
2010,08,19,18,23,17.80
2010,08,19,18,24,17.80
2010,08,19,18,25,17.70
2010,08,19,18,26,17.70
2010,08,19,18,27,17.70
2010,08,19,18,28,17.70
2010,08,19,18,29,17.60
2010,08,19,18,30,17.70
2010,08,19,18,31,17.70
2010,08,19,18,32,17.70
2010,08,19,18,33,17.70
2010,08,19,18,34,17.70
2010,08,19,18,35,17.70
2010,08,19,18,36,17.70
2010,08,19,18,37,17.70
2010,08,19,18,38,17.70
2010,08,19,18,39,17.60
2010,08,19,18,40,17.60
2010,08,19,18,41,17.60
2010,08,19,18,42,17.70
2010,08,19,18,43,17.70
2010,08,19,18,44,17.70
2010,08,19,18,45,17.70
2010,08,19,18,46,17.70
2010,08,19,18,47,17.70
2010,08,19,18,48,17.70
2010,08,19,18,49,17.70
2010,08,19,18,50,17.70
2010,08,19,18,51,17.70
2010,08,19,18,52,17.70
2010,08,19,18,53,17.70
2010,08,19,18,54,17.70
2010,08,19,18,55,17.70
2010,08,19,18,56,17.70
2010,08,19,18,57,17.70
2010,08,19,18,58,17.60
2010,08,19,18,59,17.60
2010,08,19,19,00,17.60
2010,08,19,19,01,17.60
2010,08,19,19,02,17.60
2010,08,19,19,03,17.60
2010,08,19,19,04,17.70
2010,08,19,19,05,17.80
2010,08,19,19,06,17.80
2010,08,19,19,07,17.80
2010,08,19,19,08,17.70
2010,08,19,19,09,17.70
2010,08,19,19,10,17.70
2010,08,19,19,11,17.60
2010,08,19,19,12,17.60
2010,08,19,19,13,17.60
2010,08,19,19,14,17.50
2010,08,19,19,15,17.50
2010,08,19,19,16,17.50
2010,08,19,19,17,17.50
2010,08,19,19,18,17.50
2010,08,19,19,19,17.50
2010,08,19,19,20,17.50
2010,08,19,19,21,17.40
2010,08,19,19,22,17.50
2010,08,19,19,23,17.50
2010,08,19,19,24,17.50
2010,08,19,19,25,17.50
2010,08,19,19,26,17.50
2010,08,19,19,27,17.40
2010,08,19,19,28,17.40
2010,08,19,19,29,17.40
2010,08,19,19,30,17.40
2010,08,19,19,31,17.40
2010,08,19,19,32,17.40
2010,08,19,19,33,17.40
2010,08,19,19,34,17.40
2010,08,19,19,35,17.40
2010,08,19,19,36,17.40
2010,08,19,19,37,17.40
2010,08,19,19,38,17.40
2010,08,19,19,39,17.30
2010,08,19,19,40,17.30
2010,08,19,19,41,17.30
2010,08,19,19,42,17.30
2010,08,19,19,43,17.20
2010,08,19,19,44,17.20
2010,08,19,19,45,17.20
2010,08,19,19,46,17.20
2010,08,19,19,47,17.20
2010,08,19,19,48,17.30
2010,08,19,19,49,17.20
2010,08,19,19,50,17.20
2010,08,19,19,51,17.20
2010,08,19,19,52,17.20
2010,08,19,19,53,17.20
2010,08,19,19,54,17.30
2010,08,19,19,55,17.30
2010,08,19,19,56,17.30
2010,08,19,19,57,17.30
2010,08,19,19,58,17.20
2010,08,19,19,59,17.20
2010,08,19,20,00,17.20
2010,08,19,20,01,17.20
2010,08,19,20,02,17.20
2010,08,19,20,03,17.20
2010,08,19,20,04,17.20
2010,08,19,20,05,17.10
2010,08,19,20,06,17.10
2010,08,19,20,07,17.10
2010,08,19,20,08,17.10
2010,08,19,20,09,17.10
2010,08,19,20,10,17.00
2010,08,19,20,11,17.00
2010,08,19,20,12,17.00
2010,08,19,20,13,17.00
2010,08,19,20,14,16.90
2010,08,19,20,15,16.90
2010,08,19,20,16,16.90
2010,08,19,20,17,16.90
2010,08,19,20,18,16.90
2010,08,19,20,19,16.90
2010,08,19,20,20,16.90
2010,08,19,20,21,16.80
2010,08,19,20,22,16.80
2010,08,19,20,23,16.80
2010,08,19,20,24,16.80
2010,08,19,20,25,16.80
2010,08,19,20,26,16.80
2010,08,19,20,27,16.80
2010,08,19,20,28,16.80
2010,08,19,20,29,16.80
2010,08,19,20,30,16.80
2010,08,19,20,31,16.80
2010,08,19,20,32,16.80
2010,08,19,20,33,16.80
2010,08,19,20,34,16.80
2010,08,19,20,35,16.80
2010,08,19,20,36,16.80
2010,08,19,20,37,16.80
2010,08,19,20,38,16.80
2010,08,19,20,39,16.80
2010,08,19,20,40,16.80
2010,08,19,20,41,16.70
2010,08,19,20,42,16.70
2010,08,19,20,43,16.70
2010,08,19,20,44,16.80
2010,08,19,20,45,16.70
2010,08,19,20,46,16.70
2010,08,19,20,47,16.70
2010,08,19,20,48,16.70
2010,08,19,20,49,16.70
2010,08,19,20,50,16.70
2010,08,19,20,51,16.60
2010,08,19,20,52,16.60
2010,08,19,20,53,16.60
2010,08,19,20,54,16.60
2010,08,19,20,55,16.60
2010,08,19,20,56,16.60
2010,08,19,20,57,16.60
2010,08,19,20,58,16.50
2010,08,19,20,59,16.50
2010,08,19,21,00,16.50
2010,08,19,21,01,16.50
2010,08,19,21,02,16.40
2010,08,19,21,03,16.40
2010,08,19,21,04,16.40
2010,08,19,21,05,16.40
2010,08,19,21,06,16.40
2010,08,19,21,07,16.40
2010,08,19,21,08,16.40
2010,08,19,21,09,16.40
2010,08,19,21,10,16.40
2010,08,19,21,11,16.40
2010,08,19,21,12,16.40
2010,08,19,21,13,16.40
2010,08,19,21,14,16.40
2010,08,19,21,15,16.40
2010,08,19,21,16,16.40
2010,08,19,21,17,16.40
2010,08,19,21,18,16.40
2010,08,19,21,19,16.30
2010,08,19,21,20,16.30
2010,08,19,21,21,16.30
2010,08,19,21,22,16.30
2010,08,19,21,23,16.30
2010,08,19,21,24,16.30
2010,08,19,21,25,16.30
2010,08,19,21,26,16.30
2010,08,19,21,27,16.20
2010,08,19,21,28,16.20
2010,08,19,21,29,16.20
2010,08,19,21,30,16.20
2010,08,19,21,31,16.20
2010,08,19,21,32,16.20
2010,08,19,21,33,16.10
2010,08,19,21,34,16.10
2010,08,19,21,35,16.10
2010,08,19,21,36,16.10
2010,08,19,21,37,16.10
2010,08,19,21,38,16.10
2010,08,19,21,39,16.10
2010,08,19,21,40,16.10
2010,08,19,21,41,16.10
2010,08,19,21,42,16.10
2010,08,19,21,43,16.10
2010,08,19,21,44,16.10
2010,08,19,21,45,16.10
2010,08,19,21,46,16.10
2010,08,19,21,47,16.00
2010,08,19,21,48,16.00
2010,08,19,21,49,16.00
2010,08,19,21,50,16.00
2010,08,19,21,51,16.00
2010,08,19,21,52,16.00
2010,08,19,21,53,16.00
2010,08,19,21,54,16.00
2010,08,19,21,55,16.00
2010,08,19,21,56,16.10
2010,08,19,21,57,16.10
2010,08,19,21,58,16.10
2010,08,19,21,59,16.10
2010,08,19,22,00,16.20
2010,08,19,22,01,16.20
2010,08,19,22,02,16.20
2010,08,19,22,03,16.20
2010,08,19,22,04,16.20
2010,08,19,22,05,16.20
2010,08,19,22,06,16.10
2010,08,19,22,07,16.10
2010,08,19,22,08,16.10
2010,08,19,22,09,16.10
2010,08,19,22,10,16.10
2010,08,19,22,11,16.00
2010,08,19,22,12,16.00
2010,08,19,22,13,16.00
2010,08,19,22,14,16.00
2010,08,19,22,15,16.00
2010,08,19,22,16,16.00
2010,08,19,22,17,16.00
2010,08,19,22,18,16.00
2010,08,19,22,19,16.00
2010,08,19,22,20,16.00
2010,08,19,22,21,16.00
2010,08,19,22,22,16.00
2010,08,19,22,23,15.90